Date,TemperatureHighF,TemperatureAvgF,TemperatureLowF,DewpointHighF,DewpointAvgF,DewpointLowF,HumidityHigh,HumidityAvg,HumidityLow,PressureMaxIn,PressureMinIn,WindSpeedMaxMPH,WindSpeedAvgMPH,GustSpeedMaxMPH,PrecipitationSumIn
2013-10-1,87.9,72.7,62.6,70.0,65.9,61.0,96,81,51,30.07,29.97,5,0,11,0.00
2013-10-2,85.7,73.0,62.0,69.0,65.2,61.0,97,78,52,30.09,29.98,5,0,10,0.00
2013-10-3,81.6,72.1,63.8,68.0,65.5,62.0,95,81,60,30.07,29.98,5,1,12,0.00
2013-10-4,89.4,75.4,63.0,71.0,66.9,61.0,95,76,50,30.08,29.98,7,0,8,0.00
2013-10-5,90.7,77.8,66.8,72.0,67.9,65.0,94,74,50,30.04,29.91,9,1,10,0.00
2013-10-6,83.3,72.1,58.1,72.0,68.1,57.0,97,88,67,29.91,29.77,9,1,20,0.00
2013-10-7,72.8,61.7,52.9,58.0,53.6,51.0,98,77,47,29.98,29.85,8,2,15,0.00
2013-10-8,80.1,65.3,49.1,66.0,57.9,48.0,95,78,60,30.03,29.94,9,1,11,0.00
2013-10-9,78.5,69.2,62.1,65.0,61.1,56.0,87,76,60,30.12,30.03,6,1,10,0.00
2013-10-10,83.2,69.4,58.8,66.0,62.1,57.0,97,80,49,30.10,29.97,2,0,8,0.00
2013-10-11,83.4,68.3,56.0,67.0,60.6,55.0,98,79,46,30.04,29.93,7,0,10,0.00
2013-10-12,84.1,68.6,55.0,65.0,60.3,54.0,97,78,45,30.06,29.97,8,0,11,0.00
2013-10-13,83.4,69.8,58.4,65.0,61.0,58.0,97,76,48,30.15,30.05,6,1,9,0.00
2013-10-14,82.2,68.1,56.9,66.0,61.5,56.0,97,81,56,30.16,30.03,5,1,8,0.00
2013-10-15,75.9,67.0,58.5,64.0,61.7,57.0,97,84,66,30.07,29.96,7,0,7,0.00
2013-10-16,75.8,68.3,60.5,68.0,64.1,59.0,95,86,74,30.00,29.88,6,0,8,0.07
2013-10-17,71.4,67.0,61.6,68.0,64.6,59.0,97,92,83,29.94,29.86,7,1,12,0.35
2013-10-18,72.0,61.5,52.0,59.0,54.6,51.0,97,80,52,30.02,29.90,5,0,9,0.00
2013-10-19,70.9,60.6,52.3,59.0,56.1,50.0,94,85,64,29.99,29.90,3,0,8,0.02
2013-10-20,71.1,54.1,43.3,50.0,45.4,38.0,97,77,32,30.05,29.96,6,0,9,0.00
2013-10-21,70.5,55.6,40.1,54.0,47.9,39.0,97,78,47,30.08,29.97,3,0,5,0.01
2013-10-22,75.2,62.0,51.0,58.0,53.1,46.0,96,76,39,29.98,29.84,5,1,9,0.01
2013-10-23,64.4,54.0,42.0,51.0,43.9,39.0,95,71,42,30.09,29.88,11,2,17,0.00
2013-10-24,71.2,53.1,37.2,49.0,43.3,36.0,97,73,42,30.23,30.08,5,1,10,0.00
2013-10-25,57.4,46.6,35.2,43.0,33.0,27.0,90,62,32,30.42,30.23,6,2,13,0.00
2013-10-26,66.1,46.9,30.2,41.0,35.4,29.0,96,70,32,30.31,30.14,5,0,8,0.00
2013-10-27,75.0,58.2,43.2,57.0,49.7,41.0,96,76,45,30.13,30.06,7,1,10,0.04
2013-10-28,72.5,61.0,56.0,62.0,57.6,55.0,97,89,67,30.20,30.08,3,0,8,0.05
2013-10-29,79.8,65.3,56.4,64.0,58.4,55.0,97,81,47,30.26,30.15,6,0,11,0.01
2013-10-30,78.6,66.1,55.3,63.0,58.5,54.0,97,78,53,30.23,30.06,5,1,9,0.00
2013-10-31,75.7,68.7,62.5,69.0,63.7,56.0,95,84,74,30.06,29.73,8,3,20,0.28